Location: Hoyos del Collado
(40.3594°N, 5.2003°W)
Time: 11:41:03
(UTC+00:00)

SPOT 3 Rocket - Pass Details

Date: 18 April 2024
Orbit: 776 x 793 km, 98.6° (Epoch: 21 May)

Event Time Altitude Azimuth Distance (km) Brightness Sun altitude
Exits shadow 21:35:53 60° 62° (ENE) 900 3.7 -26.0°
Drops below altitude 10° 21:40:48 10° 354° (N) 2,356 6.6 -26.6°
Sets 21:43:09 0° 351° (N) 3,286 7.6 -26.9°
